Regional Weather Roundup
Issued by NWS

Home | Current Version | Previous Version | Text Only | Print | Product List | Glossary Off
Versions: 1 2 3 4 5 6 7 8 9 10 11 12 13 14 15 16 17 18 19 20 21 22 23 24 25 26 27 28 29 30 31 32 33 34 35 36 37 38 39 40 41 42 43 44 45 46 47 48 49 50

000
ASUS43 KIND 292359
RWRIN

WEATHER ROUNDUP FOR INDIANA
NATIONAL WEATHER SERVICE INDIANAPOLIS IN
800 PM EDT MON MAY 29 2017

NOTE: "FAIR" INDICATES FEW OR NO CLOUDS BELOW 12,000 FEET WITH NO
SIGNIFICANT WEATHER AND/OR OBSTRUCTIONS TO VISIBILITY.

* - STATION DOES NOT REPORT WEATHER SUCH AS PRECIPITATION OR FOG.

+ - STATION NOT QUALITY CONTROLLED BY THE NATIONAL WEATHER SERVICE.
    USE DATA WITH CAUTION...ESPECIALLY DEWPOINT AND RELATIVE
    HUMIDITY OBSERVATIONS.

INZ001>003-010>013-019-020-300100-
NORTHWEST INDIANA

CITY           SKY/WX    TMP DP  RH WIND       PRES   REMARKS
GARY /AIRPORT/ MOSUNNY   75  36  23 W24       29.86R
KNOX *+        PTSUNNY   73  34  23 W15       29.85R
LA PORTE +     MOSUNNY   71  43  36 NW7       29.87R
6HR MIN TEMP:  71; 6HR MAX TEMP:  78;

MICHIGAN CITY+ PTSUNNY   68  45  42 W7        29.87R
MONTICELLO +   PTSUNNY   75  45  34 W14       29.86R
6HR MIN TEMP:  75; 6HR MAX TEMP:  82;

RENSSELAER +   PTSUNNY   75  34  22 W8        29.86S

$$

LMZ046-743>745-300100-
SOUTHERN LAKE MICHIGAN

STATION/POSITION TIME  TEMP    WIND        PRES    WAVE
                       AIR SEA DIR/SP/G            HT
                 (UTC) (F)     (DEG/KT/KT) (MB)    (FT)
BURNS HARBOR     2340   65     300/  9/ 13 1011.5R
MICHIGAN CITY    2330   62     280/  6/  9   N/A
5NW MICH CITY    2350   61 56  300/  8/ 12   N/A     2

$$

INZ004-005-014>016-021>024-300100-
NORTH CENTRAL INDIANA

CITY           SKY/WX    TMP DP  RH WIND       PRES   REMARKS
ELKHART        MOSUNNY   72  41  33 NW12      29.85R
GOSHEN         LGT RAIN  71  44  37 NW13G21   29.85R
6HR MIN TEMP:  70; 6HR MAX TEMP:  78; 6HR PCP:  0.04;

LOGANSPORT +   MOSUNNY   73  46  38 W5        29.87R
SOUTH BEND     MOSUNNY   69  46  43 NW9       29.86R
6HR MIN TEMP:  69; 6HR MAX TEMP:  78;

WARSAW +       PTSUNNY   72  46  40 W10       29.85R

$$

INZ006>009-017-018-025>027-300100-
NORTHEAST INDIANA

CITY           SKY/WX    TMP DP  RH WIND       PRES   REMARKS
ANGOLA *+      PTSUNNY   70  57  64 W7        29.85R
AUBURN +       SUNNY     73  50  43 SW5       29.85S
FORT WAYNE     MOSUNNY   72  58  61 SW6       29.85S
6HR MIN TEMP:  72; 6HR MAX TEMP:  79; 6HR PCP:  0.01;

KENDALLVILLE + CLOUDY    72  46  40 NW7       29.86R

$$

INZ028-029-035-036-043>045-051>053-300100-
WEST CENTRAL INDIANA

CITY           SKY/WX    TMP DP  RH WIND       PRES   REMARKS
CRAWFORDSVL +  PTSUNNY   -9 -24  47 SW3       29.88S
6HR MIN TEMP: -24; 6HR MAX TEMP:  -5; 6HR PCP:  0.01;

GREENCASTLE +  MOSUNNY   73  46  38 CALM      29.89S
LAFAYETTE      SUNNY     73  48  41 W9        29.86R
6HR MIN TEMP:  73; 6HR MAX TEMP:  80;

TERRE HAUTE    PTSUNNY   77  49  37 SW6       29.88R
6HR MIN TEMP:  77; 6HR MAX TEMP:  83;


$$

INZ030>032-037>040-046>048-054>057-064-065-300100-
CENTRAL INDIANA

CITY           SKY/WX    TMP DP  RH WIND       PRES   REMARKS
CP ATTERBURY + SUNNY     77  55  47 SW5       29.90R
COLUMBUS       SUNNY     77  48  36 SW13      29.90R
FRANKFORT +    MOSUNNY   78  52  40 NW9       29.89S
6HR MIN TEMP:  78; 6HR MAX TEMP:  83;

GREENWOOD *+   MOSUNNY   78  49  34 W7        29.89R
INDIANAPOLIS   PTSUNNY   76  49  38 SW14      29.88R
6HR MIN TEMP:  76; 6HR MAX TEMP:  82;

-EAGLE CREEK   MOSUNNY   77  48  35 SW5       29.88R
6HR MIN TEMP:  77; 6HR MAX TEMP:  82;

KOKOMO +       SUNNY     76  52  43 W8        29.88R
6HR MIN TEMP:  76; 6HR MAX TEMP:  80;

SHELBYVILLE    MOSUNNY   78  55  44 SW10      29.88R
6HR MIN TEMP:  78; 6HR MAX TEMP:  82;


$$

INZ033-034-041-042-049-050-058-059-300100-
EAST CENTRAL INDIANA

CITY           SKY/WX    TMP DP  RH WIND       PRES   REMARKS
MUNCIE         PTSUNNY   75  50  41 NW5       29.88R
6HR MIN TEMP:  74; 6HR MAX TEMP:  82; 6HR PCP: TRACE;

RICHMOND +     CLEAR     73  54  49 SW9       29.91S

$$

INZ060-061-067>069-081>083-085>088-300100-
SOUTHWEST INDIANA

CITY           SKY/WX    TMP DP  RH WIND       PRES   REMARKS
EVANSVILLE     CLOUDY    84  48  28 W6        29.91S
6HR MIN TEMP:  82; 6HR MAX TEMP:  87; 6HR PCP: TRACE;

HUNTINGBURG *+ SUNNY     80  54  40 SW6       29.91S
6HR MIN TEMP:  78; 6HR MAX TEMP:  82;

WASHINGTON +   SUNNY     80  47  30 SW7       29.90R
6HR MIN TEMP:  80; 6HR MAX TEMP:  84;


$$

INZ062-063-066-070>080-084-089>092-300100-
SOUTH CENTRAL AND SOUTHEAST INDIANA

CITY           SKY/WX    TMP DP  RH WIND       PRES   REMARKS
BLOOMINGTON    SUNNY     80  46  30 W5        29.90R
6HR MIN TEMP:  80; 6HR MAX TEMP:  84;

MADISON *+     CLOUDY    77  52  41 SW6       29.94S
SEYMOUR +      CLEAR     81  55  41 SW10      29.90S

$$





USA.gov is the U.S. government's official web portal to all federal, state and local government web resources and services.